Location: Wanzleben
(52.0609°N, 11.4408°E)
Time: 18:33:22
(UTC+00:00)

Meteor 1-24 Rocket - Pass Details

Date: 18 September 2020
Orbit: 790 x 927 km, 81.2° (Epoch: 22 October)

Event Time Altitude Azimuth Distance (km) Brightness Sun altitude
Rises 19:04:23 0° 350° (N) 3,337 7.3 -16.2°
Reaches altitude 10° 19:06:52 10° 357° (N) 2,417 6.4 -16.5°
Maximum altitude 19:12:06 45° 70° (ENE) 1,135 4.1 -17.2°
Enters shadow 19:14:23 30° 121° (ESE) 1,482 4.4 -17.6°
